Flag for U.S.A. Weather past 2 weeks in Rancho Cucamonga, California, U.S.A.

Now
52 °F

Passing clouds.


Feels Like: 52 °F
Forecast: 51 / 73 °F
Wind: No wind

Location: Ontario International Airport

Current Time: Dec 22, 2014 at 3:02:31 AM

Latest Report: Dec 22, 2014 at 1:53 AM


Visibility: 5 mi

Pressure: 30.03 "Hg

Humidity: 77%

Dew point: 45 °F

Location of Rancho CucamongaLocation

Historic Weather in Rancho Cucamonga — Graph

°F

Rancho Cucamonga temperature yesterday

Maximum temperature yesterday: 65 °F (at 2:53 PM)
Minimum temperature yesterday: 45 °F (at 6:53 AM)
Average temperature yesterday: 55 °F

Past Weeks' High & Low Weather Summary

 TemperatureHumidityPressure
High77 °F (Dec 8, 1:53 PM)97% (Dec 13, 2:53 AM)30.24 "Hg (Dec 13, 2:53 AM)
Low43 °F (Dec 14, 6:53 AM)23% (Dec 9, 3:53 PM)29.82 "Hg (Dec 12, 4:53 AM)
Average57 °F68%30.06 "Hg
* Reported Dec 7 1:53 AM — Dec 22 1:53 AM, Rancho Cucamonga, Weather by CustomWeather, © 2014

Note: Actual official high and low records may vary slightly from our data, if they occured in-between our weather recording intervals... More about our weather records

Advertising

Rancho Cucamonga weather history for previous 24 hours

 ConditionsComfort  
Time TempWeatherWind HumidityBarometerVisibility
1:53 AM
Dec 22
52 °FPassing clouds.No wind77%30.03 "Hg5 mi
12:53 AM53 °FPassing clouds.3 mph77%30.03 "Hg6 mi
11:53 PM
Dec 21
54 °FPassing clouds.No wind77%30.04 "Hg5 mi
10:53 PM55 °FPassing clouds.No wind77%30.05 "Hg5 mi
9:53 PM56 °FHaze.5 mph75%30.06 "Hg6 mi
8:53 PM55 °FPassing clouds.No wind77%30.06 "Hg5 mi
7:53 PM56 °FPassing clouds.No wind77%30.06 "Hg5 mi
6:53 PM58 °FPassing clouds.No wind72%30.06 "Hg6 mi
5:53 PM60 °FPassing clouds.No wind67%30.04 "Hg6 mi
4:53 PM63 °FPassing clouds.3 mph60%30.04 "Hg6 mi
3:53 PM65 °FPartly sunny.No wind54%30.04 "Hg6 mi
2:53 PM65 °FPartly sunny.3 mph54%30.03 "Hg7 mi
1:53 PM64 °FPartly sunny.No wind56%30.04 "Hg7 mi
12:53 PM62 °FPartly sunny.No wind60%30.07 "Hg6 mi
11:53 AM60 °FPartly sunny.No wind65%30.11 "Hg5 mi
10:53 AM58 °FPartly sunny.No wind70%30.14 "Hg3 mi
9:53 AM56 °FPartly sunny.No wind75%30.15 "Hg3 mi
8:53 AM53 °FPartly sunny.No wind80%30.16 "Hg3 mi
7:53 AM48 °FFog.3 mph89%30.16 "Hg3 mi
6:53 AM45 °FFog.3 mph90%30.14 "Hg4 mi
5:53 AM47 °FFog.No wind86%30.13 "Hg4 mi
4:53 AM48 °FFog.3 mph86%30.11 "Hg5 mi
3:53 AM46 °FPassing clouds.No wind89%30.11 "Hg7 mi
Weather by CustomWeather, © 2014

See weather overviewHow to use our weather pages